FREGAT R/B

Satellite information

Favourite Embed

Satellite Type and Status

ROCKET BODYIN ORBIT

Key statistics

Satellite FREGAT R/B at a glance.

Uptime

288

Days in orbit

Revolutions

≈ 2.1

Per day

Orbit

MEO

Medium Earth Orbit

Inclination

65.0

Latest

Satellite identification and parameters

Extended collection of information and parameters for FREGAT R/B.

Object identification

Identified? True

Debris? False

Object name: FREGAT R/B

International designator: 2025-042B

Object number (NORAD): 63131

Object ID (CCSDS): 63131

Country: COMMONWEALTH OF INDEPENDENT STATES (CIS)

Current information (Y/N): Y

RCS size: LARGE

Orbital parameters

Period: 673.673 minutes

Inclination: 64.9775 deg

SMA: 25456.164 km

Apoapsis: 19121.105 km

Periapsis: 19034.953 km

RAAN: 79.0462 deg

Eccentricy: 0.00169216

Argument of periapsis: 195.3071 deg

Mean anomaly: 164.6555 deg

Mean motion: 2.13753546 rev/day

Mean motion (dot): -0.00000052 rev/day2

B* drag term: 0.0 1/REarth

Two-line elements (TLE)

Creation date: Dec. 14, 2025, 6:24 p.m.

Reference frame: TEME

Reference center: EARTH

Epoch: Dec. 13, 2025, 8:43 p.m. UTC

TLE line 0: 0 FREGAT R/B

TLE line 1: 1 63131U 25042B 25347.86385540 -.00000052 00000-0 00000-0 0 9995

TLE line 2: 2 63131 64.9775 79.0462 0016922 195.3071 164.6555 2.13753546 6103

Live tracking on map

Real-time ground track for satellite FREGAT R/B.

In-orbit conjunctions

A list of the most updated potential collisions computed for object FREGAT R/B.

Target Orbit TCA Probability of collision Miss distance Type
SL-12 R/B(2) MEO 2025-12-06 17:16:50 TBA 2884.0 (m) ROCKET BODY

Associated space launch

Glonass-K2 are the fourth generation of satellite design for GLONASS satellite navigation system. GLONASS is a Russian space-based navigation system comparable to the similar GPS and Galileo systems. This generation improves on accuracy, power consumption and design life. Each satellite is unpressurized and weighs 1645 kg, and has an operational lifetime of 10 years.

FREGAT R/B was lifted into orbit during the mission ‘Soyuz 2.1b/Fregat-M | Glonass-K2 No. 14 (Kosmos 2584)’, on board a Soyuz 2.1b/Fregat-M space rocket.

The launch took place on March 2, 2025, 10:22 p.m. from 43/3 (43L).

For more information about the launch, click the button.

Launch to space Soyuz 2.1b/Fregat-M | Glonass-K2 No. 14 (Kosmos 2584)
Soyuz 2.1b/Fregat-M | Glonass-K2 No. 14 (Kosmos 2584)

Agency: Russian Space Forces

Status: Launch Successful

Launch date: March 2, 2025, 10:22 p.m. UTC

Rocket: Soyuz 2.1b/Fregat-M

Launch pad: 43/3 (43L)

Location: Plesetsk Cosmodrome, Russian Federation

...

Latest news about this satellite

News about space launch
Launch Roundup: Starship, lunar lander, and telescope missions set for launch

Several significant missions are scheduled for this week, including the third lunar lander to launch… The post Launch Roundup: Starship, lunar lander, and telescope missions set for launch appeared first on NASASpaceFlight.com.


Newsletter sign-up

Weekly statistics, charts and insights to help you stay on top of the space industry.